Weather History for Leconfield, United Kingdom

Change the Weather History Date:

Thursday, January 17, 2013

  Actual Average Record
Temperature  
Mean Temperature 23 °F -  
Max Temperature 32 °F - - ()
Min Temperature 14 °F - - ()
Degree Days  
Heating Degree Days 42    
Moisture  
Dew Point 21 °F    
Average Humidity 92    
Maximum Humidity 100    
Minimum Humidity 86    
Precipitation  
Precipitation 0.00 in - - ()
Sea Level Pressure  
Sea Level Pressure 30.02 in    
Wind  
Wind Speed 2 mph ()    
Max Wind Speed 7 mph    
Max Gust Speed -    
Visibility 5.2 miles    
Events      
T = Trace of Precipitation, MM = Missing Value Source: Averaged Metar Reports

Daily Weather History Graph

Daily Weather History Graph

Search for Another Location

Airport:

Trip Planner

Search our weather history database for the weather conditions in past years. The results will help you decide how hot, cold, wet, or windy it might be!

Date:

Astronomy

Jan. 17, 2013 Rise Set
Actual Time 8:09 AM GMT 4:14 PM GMT
Civil Twilight 7:28 AM GMT 4:55 PM GMT
Nautical Twilight 6:44 AM GMT 5:40 PM GMT
Astronomical Twilight 6:02 AM GMT 6:22 PM GMT
Moon 10:04 AM GMT (1/17) No Moon Set
Length of Visible Light 9h 27m
Length of Day
8h 05m
Waxing Crescent, 35% of the Moon is Illuminated
Jan 17
Waxing Crescent
Jan 18
First Quarter
Jan 27
Full
Feb 3
Last Quarter
Feb 10
New

Hourly Weather History & Observations

Time (GMT) Temp. Windchill Dew Point Humidity Pressure Visibility Wind Dir Wind Speed Gust Speed Precip Events Conditions
12:50 AM 15.8 °F - 12.2 °F 86% 30.01 in 6.2 mi WSW 1.2 mph - N/A   Unknown
1:50 AM 15.8 °F - 12.2 °F 86% 30.04 in 6.2 mi West 2.3 mph - N/A   Unknown
2:50 AM 14.0 °F - 12.2 °F 93% 30.04 in 6.2 mi WNW 1.2 mph - N/A   Unknown
3:50 AM 14.0 °F - 10.4 °F 86% 30.04 in 6.2 mi WSW 2.3 mph - N/A   Unknown
4:50 AM 14.0 °F - 12.2 °F 93% 30.04 in 6.2 mi WSW 2.3 mph - N/A   Unknown
5:50 AM 14.0 °F - 12.2 °F 93% 30.04 in 6.2 mi North 1.2 mph - N/A   Unknown
6:50 AM 14.0 °F - 10.4 °F 86% 30.04 in 6.2 mi West 2.3 mph - N/A   Unknown
8:50 AM 15.8 °F - 14.0 °F 93% 30.06 in 6.2 mi West 1.2 mph - N/A   Mostly Cloudy
9:50 AM 19.4 °F - 17.6 °F 93% 30.06 in 5.6 mi West 2.3 mph - N/A   Partly Cloudy
10:50 AM 21.2 °F 14.9 °F 19.4 °F 93% 30.06 in 4.3 mi ENE 4.6 mph - N/A   Haze
11:50 AM 24.8 °F - 23.0 °F 93% 30.06 in 4.3 mi NE 1.2 mph - N/A   Overcast
12:50 PM 26.6 °F - 24.8 °F 93% 30.06 in 3.1 mi NE 1.2 mph - N/A   Overcast
1:50 PM 28.4 °F - 26.6 °F 93% 30.04 in - ENE 1.2 mph - N/A   Overcast
2:50 PM 28.4 °F - 26.6 °F 93% 30.04 in - ENE 2.3 mph - N/A   Overcast
3:50 PM 28.4 °F 24.6 °F 26.6 °F 93% 30.04 in - East 3.5 mph - N/A   Overcast
4:50 PM 30.2 °F 26.7 °F 28.4 °F 93% 30.04 in 3.1 mi ESE 3.5 mph - N/A   Overcast
5:50 PM 30.2 °F 26.7 °F 28.4 °F 93% 30.01 in 3.1 mi SE 3.5 mph - N/A   Mostly Cloudy
6:50 PM 30.2 °F 25.4 °F 30.2 °F 100% 30.01 in 5.0 mi SE 4.6 mph - N/A   Overcast
7:50 PM 32.0 °F 27.5 °F 28.4 °F 87% 29.98 in 6.2 mi SE 4.6 mph - N/A   Overcast
8:50 PM 30.2 °F - 28.4 °F 93% 29.98 in 4.3 mi East 1.2 mph - N/A   Haze
9:50 PM 32.0 °F 26.4 °F 28.4 °F 87% 29.98 in 6.2 mi SSE 5.8 mph - N/A   Mostly Cloudy
10:50 PM 32.0 °F 25.6 °F 30.2 °F 93% 29.95 in 5.6 mi ESE 6.9 mph - N/A   Haze
11:50 PM 32.0 °F 25.6 °F 30.2 °F 93% 29.92 in 4.3 mi ESE 6.9 mph - N/A   Haze